Year,Month,Day,Hour,Minute,Value (Times are PST for temperature in C)
2019,01,24,00,00,6.00
2019,01,24,00,01,6.00
2019,01,24,00,02,6.00
2019,01,24,00,03,6.00
2019,01,24,15,24,7.10
2019,01,24,15,25,7.10
2019,01,24,15,26,7.10
2019,01,24,15,27,7.10
2019,01,24,15,28,7.10
2019,01,24,15,29,7.10
2019,01,24,15,30,7.10
2019,01,24,15,31,7.10
2019,01,24,15,32,7.10
2019,01,24,15,33,7.10
2019,01,24,15,34,7.10
2019,01,24,15,35,7.10
2019,01,24,15,36,7.10
2019,01,24,15,37,7.10
2019,01,24,15,38,7.10
2019,01,24,15,39,7.10
2019,01,24,15,40,7.10
2019,01,24,15,41,7.10
2019,01,24,15,42,7.10
2019,01,24,15,43,7.10
2019,01,24,15,44,7.10
2019,01,24,15,45,7.10
2019,01,24,15,46,7.10
2019,01,24,15,47,7.00
2019,01,24,15,48,7.00
2019,01,24,15,49,7.00
2019,01,24,15,50,7.00
2019,01,24,15,51,7.00
2019,01,24,15,52,7.00
2019,01,24,15,53,7.00
2019,01,24,15,54,7.00
2019,01,24,15,55,7.00
2019,01,24,15,56,7.10
2019,01,24,15,57,7.10
2019,01,24,15,58,7.10
2019,01,24,15,59,7.10
2019,01,24,16,00,7.00
2019,01,24,16,01,7.10
2019,01,24,16,02,7.10
2019,01,24,16,03,7.10
2019,01,24,16,04,7.10
2019,01,24,16,05,7.10
2019,01,24,16,06,7.10
2019,01,24,16,07,7.10
2019,01,24,16,08,7.10
2019,01,24,16,09,7.10
2019,01,24,16,10,7.10
2019,01,24,16,11,7.10
2019,01,24,16,12,7.10
2019,01,24,16,13,7.10
2019,01,24,16,14,7.10
2019,01,24,16,15,7.10
2019,01,24,16,16,7.10
2019,01,24,16,17,7.10
2019,01,24,16,18,7.10
2019,01,24,16,19,7.10
2019,01,24,16,20,7.10
2019,01,24,16,21,7.10
2019,01,24,16,22,7.10
2019,01,24,16,23,7.10
2019,01,24,16,24,7.10
2019,01,24,16,25,7.10
2019,01,24,16,26,7.10
2019,01,24,16,27,7.10
2019,01,24,16,28,7.10
2019,01,24,16,29,7.10
2019,01,24,16,30,7.10
2019,01,24,16,31,7.10
2019,01,24,16,32,7.10
2019,01,24,16,33,7.10
2019,01,24,16,34,7.20
2019,01,24,16,35,7.20
2019,01,24,16,36,7.10
2019,01,24,16,37,7.10
2019,01,24,16,38,7.10
2019,01,24,16,39,7.10
2019,01,24,16,40,7.10
2019,01,24,16,41,7.10
2019,01,24,16,42,7.10
2019,01,24,16,43,7.10
2019,01,24,16,44,7.10
2019,01,24,16,45,7.10
2019,01,24,16,46,7.10
2019,01,24,16,47,7.00
2019,01,24,16,48,7.00
2019,01,24,16,49,7.00
2019,01,24,16,50,7.00
2019,01,24,16,51,7.00
2019,01,24,16,52,7.00
2019,01,24,16,53,7.00
2019,01,24,16,54,7.00
2019,01,24,16,55,7.00
2019,01,24,16,56,7.00
2019,01,24,16,57,7.00
2019,01,24,16,58,7.00
2019,01,24,16,59,7.00
2019,01,24,17,00,7.00
2019,01,24,17,01,7.00
2019,01,24,17,02,6.90
2019,01,24,17,03,6.90
2019,01,24,17,04,6.90
2019,01,24,17,05,6.90
2019,01,24,17,06,6.90
2019,01,24,17,07,6.90
2019,01,24,17,08,6.90
2019,01,24,17,09,6.90
2019,01,24,17,10,6.90
2019,01,24,17,11,6.90
2019,01,24,17,12,6.90
2019,01,24,17,13,6.90
2019,01,24,17,14,6.90
2019,01,24,17,15,6.90
2019,01,24,17,16,6.90
2019,01,24,17,17,6.90
2019,01,24,17,18,6.90
2019,01,24,17,19,6.80
2019,01,24,17,20,6.80
2019,01,24,17,21,6.80
2019,01,24,17,22,6.80
2019,01,24,17,23,6.80
2019,01,24,17,24,6.80
2019,01,24,17,25,6.80
2019,01,24,17,26,6.80
2019,01,24,17,27,6.80
2019,01,24,17,28,6.80
2019,01,24,17,29,6.80
2019,01,24,17,30,6.80
2019,01,24,17,31,6.80
2019,01,24,17,32,6.80
2019,01,24,17,33,6.80
2019,01,24,17,34,6.80
2019,01,24,17,35,6.80
2019,01,24,17,36,6.80
2019,01,24,17,37,6.80
2019,01,24,17,38,6.80
2019,01,24,17,39,6.80
2019,01,24,17,40,6.80
2019,01,24,17,41,6.80
2019,01,24,17,42,6.80
2019,01,24,17,43,6.80
2019,01,24,17,44,6.80
2019,01,24,17,45,6.80
2019,01,24,17,46,6.80
2019,01,24,17,47,6.80
2019,01,24,17,48,6.80
2019,01,24,17,49,6.70
2019,01,24,17,50,6.70
2019,01,24,17,51,6.70
2019,01,24,17,52,6.70
2019,01,24,17,53,6.70
2019,01,24,17,54,6.70
2019,01,24,17,55,6.70
2019,01,24,17,56,6.70
2019,01,24,17,57,6.70
2019,01,24,17,58,6.70
2019,01,24,17,59,6.70
2019,01,24,18,00,6.70
2019,01,24,18,01,6.70
2019,01,24,18,02,6.70
2019,01,24,18,03,6.70
2019,01,24,18,04,6.70
2019,01,24,18,05,6.70
2019,01,24,18,06,6.70
2019,01,24,18,07,6.70
2019,01,24,18,08,6.70
2019,01,24,18,09,6.70
2019,01,24,18,10,6.70
2019,01,24,18,11,6.60
2019,01,24,18,12,6.60
2019,01,24,18,13,6.60
2019,01,24,18,14,6.60
2019,01,24,18,15,6.60
2019,01,24,18,16,6.60
2019,01,24,18,17,6.60
2019,01,24,18,18,6.60
2019,01,24,18,19,6.60
2019,01,24,18,20,6.60
2019,01,24,18,21,6.60
2019,01,24,18,22,6.60
2019,01,24,18,23,6.60
2019,01,24,18,24,6.60
2019,01,24,18,25,6.60
2019,01,24,18,26,6.60
2019,01,24,18,27,6.60
2019,01,24,18,28,6.60
2019,01,24,18,29,6.60
2019,01,24,18,30,6.60
2019,01,24,18,31,6.60
2019,01,24,18,32,6.60
2019,01,24,18,33,6.50
2019,01,24,18,34,6.50
2019,01,24,18,35,6.50
2019,01,24,18,36,6.50
2019,01,24,18,37,6.50
2019,01,24,18,38,6.50
2019,01,24,18,39,6.50
2019,01,24,18,40,6.40
2019,01,24,18,41,6.40
2019,01,24,18,42,6.50
2019,01,24,18,43,6.50
2019,01,24,18,44,6.40
2019,01,24,18,45,6.40
2019,01,24,18,46,6.40
2019,01,24,18,47,6.40
2019,01,24,18,48,6.40
2019,01,24,18,49,6.40
2019,01,24,18,50,6.40
2019,01,24,18,51,6.40
2019,01,24,18,52,6.40
2019,01,24,18,53,6.40
2019,01,24,18,54,6.40
2019,01,24,18,55,6.40
2019,01,24,18,56,6.40
2019,01,24,18,57,6.40
2019,01,24,18,58,6.40
2019,01,24,18,59,6.40
2019,01,24,19,00,6.40
2019,01,24,19,01,6.40
